Location: North Bay Shore
(40.7362°N, 73.2626°W)
Time: 05:29:47
(UTC+00:00)

Cosmos 220 Rocket - Pass Details

Date: 29 October 2020
Orbit: 574 x 617 km, 74.0° (Epoch: 29 November)

Event Time Altitude Azimuth Distance (km) Brightness Sun altitude
Rises 22:33:10 0° 180° (S) 2,823 7.6 -8.3°
Reaches altitude 10° 22:35:28 10° 172° (S) 1,933 6.7 -8.7°
Maximum altitude 22:39:30 40° 103° (ESE) 894 4.5 -9.5°
Drops below altitude 10° 22:43:38 10° 34° (NE) 1,971 6.2 -10.3°
Enters shadow 22:45:55 - 27° (NNE) 2,858 7.1 -10.7°
